TimeEDT,TemperatureF,Dew PointF,Humidity,Sea Level PressureIn,VisibilityMPH,Wind Direction,Wind SpeedMPH,Gust SpeedMPH,PrecipitationIn,Events,Conditions,WindDirDegrees,DateUTC
12:56 AM,63.0,60.1,90,30.04,-9999.0,South,5.8,-,N/A,,Unknown,180,2013-08-29 04:56:00
1:56 AM,63.0,60.1,90,30.05,-9999.0,South,5.8,-,N/A,,Unknown,190,2013-08-29 05:56:00
2:56 AM,63.0,60.1,90,30.05,-9999.0,South,8.1,-,N/A,,Unknown,180,2013-08-29 06:56:00
3:56 AM,63.0,60.1,90,30.04,-9999.0,South,6.9,-,N/A,,Unknown,190,2013-08-29 07:56:00
4:56 AM,64.9,61.0,87,30.04,-9999.0,SW,4.6,-,N/A,,Unknown,230,2013-08-29 08:56:00
5:56 AM,66.0,61.0,84,30.04,-9999.0,South,4.6,-,N/A,,Unknown,190,2013-08-29 09:56:00
6:56 AM,68.0,61.0,78,30.04,-9999.0,SSW,8.1,-,N/A,,Unknown,200,2013-08-29 10:56:00
7:56 AM,69.1,62.1,78,30.05,-9999.0,SSW,9.2,-,N/A,,Unknown,210,2013-08-29 11:56:00
8:56 AM,72.0,64.9,78,30.06,-9999.0,SSW,6.9,-,N/A,,Unknown,210,2013-08-29 12:56:00
9:56 AM,75.9,66.0,71,30.05,-9999.0,SSW,3.5,-,N/A,,Unknown,210,2013-08-29 13:56:00
10:56 AM,82.0,66.9,60,30.04,-9999.0,Variable,4.6,-,N/A,,Unknown,0,2013-08-29 14:56:00
11:56 AM,84.0,64.9,53,30.04,-9999.0,WSW,6.9,-,N/A,,Unknown,240,2013-08-29 15:56:00
12:56 PM,84.9,64.0,49,30.03,-9999.0,SSW,6.9,-,N/A,,Unknown,210,2013-08-29 16:56:00
1:56 PM,87.1,63.0,44,30.01,-9999.0,Variable,4.6,-,N/A,,Unknown,0,2013-08-29 17:56:00
2:56 PM,88.0,62.1,42,29.99,-9999.0,Variable,4.6,-,N/A,,Unknown,0,2013-08-29 18:56:00
3:56 PM,86.0,63.0,46,29.98,-9999.0,SSW,8.1,-,N/A,,Unknown,200,2013-08-29 19:56:00
4:56 PM,84.0,63.0,49,29.97,-9999.0,South,4.6,-,N/A,,Unknown,170,2013-08-29 20:56:00
5:56 PM,82.0,66.0,58,29.99,-9999.0,South,5.8,-,N/A,,Unknown,180,2013-08-29 21:56:00
6:56 PM,80.1,66.9,64,29.99,-9999.0,South,5.8,-,N/A,,Unknown,180,2013-08-29 22:56:00
7:56 PM,78.1,68.0,71,29.95,-9999.0,South,6.9,-,N/A,,Unknown,180,2013-08-29 23:56:00
8:56 PM,75.9,68.0,76,29.93,-9999.0,South,5.8,-,N/A,,Unknown,190,2013-08-30 00:56:00
9:56 PM,75.0,66.0,73,29.91,-9999.0,SSW,8.1,-,N/A,,Unknown,200,2013-08-30 01:56:00
10:56 PM,75.0,66.0,73,29.88,-9999.0,SSW,8.1,16.1,N/A,,Unknown,200,2013-08-30 02:56:00
11:56 PM,75.9,66.0,71,29.86,-9999.0,South,6.9,-,N/A,,Unknown,180,2013-08-30 03:56:00